Vorticity
nan nan nan nan nan nan nan nan nan nan nan nan nan nan nan nan nan nan nan nan nan nan nan nan nan nan nan nan nan nan nan nan nan nan nan nan nan nan nan nan nan nan nan nan
nan 10 12 9 8 8 5 4 6 12 12 10 14 3 7 11 10 9 7 13 13 10 9 9 7 8 8 7 5 6 8 8 6 6 8 8 9 9 9 11 11 8 8 nan
nan 11 16 9 5 4 5 6 14 10 2 3 8 11 9 7 7 11 7 11 15 13 6 8 7 6 7 7 7 7 7 7 6 6 5 7 8 9 7 9 9 10 11 nan
nan 20 9 -0 3 10 6 10 12 3 3 7 7 9 9 15 10 10 11 6 9 8 10 7 7 7 7 7 7 8 7 7 7 7 6 8 6 7 7 8 7 7 7 nan
nan 12 8 8 10 6 1 13 11 9 4 5 4 11 9 9 11 13 14 11 10 7 9 9 7 7 6 7 8 8 7 6 7 7 6 7 6 7 8 9 8 8 10 nan
nan 8 10 9 13 4 7 11 10 14 6 10 13 4 8 14 9 8 10 15 12 5 8 12 7 8 7 7 8 8 8 5 8 7 7 7 7 8 7 8 10 9 9 nan
nan 11 12 9 9 9 12 9 8 6 13 15 8 6 8 6 16 11 12 9 10 8 10 12 9 6 9 10 6 6 7 6 7 8 8 8 8 9 9 8 9 9 8 nan
nan 11 15 12 13 9 5 9 6 8 6 7 7 10 9 15 13 4 10 18 14 10 9 9 9 8 7 8 8 8 7 6 6 6 6 8 8 7 9 8 9 9 8 nan
nan 6 13 13 10 6 9 11 10 5 9 11 9 8 8 11 8 9 9 13 9 10 12 10 6 8 11 8 9 9 7 8 7 7 8 7 8 8 8 8 7 9 8 nan
nan 10 9 11 11 8 12 3 6 12 13 6 11 10 11 5 9 5 6 7 10 13 12 12 9 6 10 12 8 9 9 10 10 8 7 8 8 8 8 9 9 8 9 nan
nan 7 9 14 10 5 4 12 13 14 8 9 9 8 13 13 13 13 7 12 19 14 11 9 10 11 10 11 12 8 10 9 7 8 8 8 9 8 7 8 10 10 9 nan
nan 4 14 5 6 12 12 10 10 6 7 10 11 8 16 18 14 17 24 14 16 17 11 12 12 10 9 8 11 9 8 10 10 9 8 9 8 10 8 7 9 10 9 nan
nan 5 6 9 13 16 11 9 8 7 13 12 7 10 12 16 16 7 10 14 11 12 13 15 15 11 9 9 8 8 8 9 11 11 9 9 8 8 8 7 8 8 9 nan
nan 16 13 10 6 7 4 7 9 10 9 13 7 12 6 11 5 11 9 6 7 8 8 8 11 14 12 10 10 10 9 10 10 10 12 10 9 8 9 8 8 9 10 nan
nan 8 8 9 12 9 10 5 6 7 7 10 14 10 11 12 10 8 3 7 10 8 7 7 8 12 14 13 12 11 10 11 13 9 10 11 10 9 9 9 9 9 10 nan
nan 15 9 9 14 10 9 6 10 6 7 13 12 5 14 10 13 16 12 8 6 9 9 10 12 10 10 11 13 14 14 12 12 13 11 10 11 10 11 12 6 8 12 nan
nan 12 11 7 7 11 13 16 11 9 12 13 13 13 12 12 9 7 9 10 9 10 14 13 10 9 8 7 9 13 16 15 14 14 12 11 10 11 8 6 8 9 12 nan
nan 11 11 11 8 11 5 12 17 11 9 11 15 20 13 8 8 6 9 11 11 10 8 7 8 8 8 11 10 10 10 13 13 13 13 11 11 14 17 13 7 4 7 nan
nan 8 12 14 7 5 11 16 12 9 10 13 10 11 10 6 7 9 18 18 13 8 7 9 10 9 10 10 10 9 8 11 10 9 10 12 14 17 16 13 9 8 8 nan
nan 10 11 10 12 10 5 6 11 10 9 13 13 12 9 6 7 10 13 14 11 13 13 11 9 9 8 9 11 9 9 10 7 8 9 11 14 17 15 15 15 14 12 nan
nan 14 11 8 7 5 13 12 16 12 11 11 10 10 10 13 13 15 10 9 13 13 8 7 11 11 9 10 10 9 9 7 10 11 10 12 13 13 14 14 17 18 16 nan
nan 10 7 7 8 8 11 20 14 7 14 11 10 10 14 14 11 11 10 10 10 8 7 8 9 9 10 10 9 9 8 8 11 14 15 12 10 12 14 13 12 14 13 nan
nan 12 15 13 8 7 9 10 11 18 11 12 12 14 13 8 8 9 9 9 8 8 8 9 9 8 10 9 8 8 8 11 11 12 13 15 13 11 12 13 11 10 11 nan
nan 15 10 8 12 11 10 10 7 11 20 19 14 14 8 8 10 10 10 11 11 12 11 9 8 7 8 10 10 8 9 8 9 9 10 12 11 12 13 13 12 13 11 nan
nan 6 12 8 10 11 7 10 1 2 17 18 21 16 9 8 9 10 12 11 10 9 13 16 10 9 9 9 9 8 9 9 7 8 8 9 10 10 10 10 13 14 14 nan
nan nan nan nan nan nan nan nan nan nan nan nan nan nan nan nan nan nan nan nan nan nan nan nan nan nan nan nan nan nan nan nan nan nan nan nan nan nan nan nan nan nan nan nan
CAPE
0 0 0 182 47 1 9 0 153 528 498 316 149 77 13 20 3 9 81 5 12 40 59 41 24 43 20 30 2 6 0 0 20 67 48 22 149 329 11 473 658 594 507 391
0 0 0 40 32 44 4 23 12 185 484 137 305 347 441 72 14 4 122 28 0 0 23 16 4 31 7 12 1 0 0 0 61 18 0 136 426 481 280 271 944 693 806 207
0 0 27 189 109 63 25 24 22 331 383 20 41 1 1 24 101 22 147 193 0 6 6 15 0 6 0 3 0 0 0 4 4 0 1 99 268 11 4 95 812 842 774 710
0 0 285 148 106 88 63 103 84 725 384 120 22 8 0 1 31 96 223 128 30 0 0 3 1 0 0 0 0 0 0 0 12 0 4 212 238 48 1 0 69 105 406 465
0 115 336 204 152 94 93 136 166 535 449 42 44 19 6 0 2 32 63 113 50 3 1 1 0 0 0 0 0 0 0 0 1 1 76 426 524 10 0 47 52 8 415 584
0 0 146 187 215 60 57 6 92 176 138 39 52 13 5 9 0 4 67 163 114 67 20 13 4 0 0 0 0 18 0 0 0 0 22 472 726 245 216 73 695 387 759 654
0 0 0 0 0 0 0 0 0 0 0 30 48 4 1 23 5 0 28 10 40 67 35 0 4 0 0 0 0 0 3 14 0 6 26 206 618 639 634 511 551 574 756 559
0 0 0 0 0 0 0 0 0 10 0 26 24 25 3 21 15 0 1 1 1 76 27 5 0 0 0 0 0 3 0 133 186 92 342 336 613 639 635 456 493 329 243 150
0 0 0 0 0 0 0 0 0 0 0 13 0 2 167 3 0 0 0 0 65 105 124 78 1 0 0 0 0 6 0 7 108 155 156 550 692 838 822 803 655 489 244 8
0 0 0 0 0 0 0 0 0 0 0 29 67 38 53 75 36 1 10 20 50 66 201 180 69 0 0 0 0 2 11 21 13 90 4 463 638 730 830 867 786 634 322 30
0 0 0 0 0 0 0 0 0 0 0 0 24 1 0 28 81 75 27 69 135 475 320 278 154 66 2 0 0 48 60 80 84 125 116 30 721 861 916 1140 1175 733 169 101
0 0 0 0 0 0 0 0 0 0 0 0 0 1 0 85 0 20 7 146 210 495 390 329 281 178 99 97 28 70 177 187 162 323 434 257 401 1139 1179 1135 1129 684 146 321
0 0 0 0 2 4 54 5 0 0 0 0 53 55 0 15 66 236 459 364 330 235 152 241 203 177 213 221 160 102 12 95 739 657 672 649 675 1170 1220 1205 1173 586 699 487
0 0 0 0 2 0 16 25 2 3 0 0 10 31 0 73 169 114 452 489 445 327 631 594 297 472 231 290 260 223 179 322 615 972 810 840 842 1034 1243 1179 1123 988 651 617
0 0 0 0 0 3 0 34 55 42 0 95 62 9 0 6 135 43 226 393 550 418 394 594 747 621 989 527 310 523 503 321 305 889 1118 1005 937 1015 1314 1218 1037 863 1062 732
0 0 0 0 0 16 16 42 12 46 0 0 0 0 0 0 1 48 164 495 523 467 357 113 1050 1474 1491 1488 1676 1438 838 322 268 246 1272 1149 998 1072 1027 1064 885 643 1048 877
0 0 0 0 0 0 0 1 20 6 0 0 0 0 0 0 13 4 0 0 0 164 981 1199 1450 1259 1260 1238 1102 1012 965 1237 1287 1287 654 893 964 898 955 278 0 10 99 754
0 0 0 0 0 0 0 0 0 1 0 0 0 0 1 2 0 0 0 82 1162 1526 1450 1347 1128 947 952 850 1060 994 954 951 1038 710 549 405 534 464 503 426 169 99 0 170
0 0 0 0 0 0 0 24 0 0 0 0 0 0 0 0 123 747 442 510 1234 1232 1126 1052 818 582 572 897 788 496 382 412 503 414 367 348 417 476 284 416 410 100 36 355
0 0 0 0 0 0 0 18 0 0 0 0 0 0 0 0 25 1110 1213 1236 1018 658 467 362 248 194 236 112 27 17 0 1 1 1 45 262 143 190 276 286 429 209 256 117
0 1 0 0 0 0 0 1 0 0 0 133 0 19 280 332 64 989 711 511 272 349 176 7 0 23 0 0 0 0 0 1 1 0 0 17 91 26 13 71 1 51 80 4
0 0 14 1 0 0 0 2 0 0 35 47 30 937 1313 1151 886 736 523 254 274 318 146 13 0 0 0 0 0 0 1 1 0 1 1 1 1 1 1 1 1 1 0 1
0 0 0 0 0 0 0 0 0 0 3 16 592 1550 1445 1143 891 596 519 270 112 111 28 0 0 0 0 0 0 0 2 1 1 1 1 1 1 1 1 1 1 0 1 0
0 0 6 4 0 0 0 1 0 0 0 0 103 1221 1141 938 623 635 318 233 122 24 19 0 0 0 1 0 0 0 0 0 0 1 1 1 1 0 0 1 1 1 1 1
0 0 1 0 0 2 10 11 0 0 0 1087 1100 1116 797 494 310 252 196 135 26 71 48 20 19 2 1 0 1 0 0 0 0 0 0 1 1 0 0 0 1 0 1 0
123 25 6 0 6 7 14 34 64 1 0 590 824 709 520 326 199 21 0 0 7 24 21 5 0 1 0 0 1 0 0 0 0 0 0 0 0 0 0 0 0 0 1 2